Location: Autingues
(50.8400°N, 1.9737°E)
Time: 07:26:05
(UTC+00:00)

SL-16 R/B - Pass Details

Date: 15 May 2026
Orbit: 841 x 844 km, 71.0° (Epoch: 5 June)

Event Time Altitude Azimuth Distance (km) Brightness Sun altitude
Rises 21:03:41 0° 328° (NNW) 3,416 7.4 -11.3°
Reaches altitude 10° 21:06:10 10° 324° (NW) 2,476 6.2 -11.6°
Maximum altitude 21:11:44 58° 247° (WSW) 979 2.6 -12.1°
Enters shadow 21:16:36 13° 171° (S) 2,220 3.9 -12.6°
